Location: Elizabeth Ann Machol Dragonfly Observatory
(32.8132°N, 108.2740°W)
Time: 07:15:37
(UTC-06:00)

OTV 5 (USA 277) - Visible Passes

Search period start: 19 October 2019 00:00
Search period end: 29 October 2019 00:00
Orbit: 310 x 324 km, 54.5° (Epoch: 17 October)

Date Brightness Start Highest point End Pass type
(mag) Time Alt. Az. Time Alt. Az. Time Alt. Az.
19 Oct ? 06:25:51 10° NNW 06:28:05 22° NE 06:30:19 10° E visible
20 Oct ? 06:39:58 10° NW 06:42:42 80° NE 06:45:24 10° SE visible
21 Oct ? 05:23:30 13° NE 05:23:30 13° NE 05:24:22 10° ENE visible
21 Oct ? 06:54:51 10° WNW 06:57:09 24° SW 06:59:25 10° S visible
22 Oct ? 05:38:25 28° E 05:38:25 28° E 05:40:05 10° ESE visible
23 Oct ? 05:53:29 22° SSE 05:53:29 22° SSE 05:54:40 10° SSE visible
25 Oct ? 19:27:22 10° S 19:29:01 18° SE 19:29:01 18° SE visible
26 Oct ? 19:41:03 10° SW 19:43:43 71° SE 19:43:54 67° E visible
27 Oct ? 19:55:52 10° WSW 19:58:17 29° NW 19:58:38 28° NNW visible
28 Oct ? 20:12:06 10° WNW 20:13:02 11° NW 20:13:13 11° NNW visible
